Location: Rotheul
(50.2849°N, 11.2349°E)
Time: 08:23:32
(UTC+01:00)

ISS - Pass Details

Date: 10 November 2018
Orbit: 401 x 408 km, 51.6° (Epoch: 20 November)

Event Time Altitude Azimuth Distance (km) Brightness Sun altitude
Exits shadow 04:25:43 19° 91° (E) 1,031 -1.0 -27.9°
Drops below altitude 10° 04:26:48 10° 94° (E) 1,463 -0.1 -27.7°
Sets 04:28:53 0° 96° (E) 2,324 1.2 -27.4°
